STARLINK-34562, 64725

Orbit data source: Space-Track

STARLINK-34562, 64725 is a payload satellite owned by SpaceX/Seattle (US) in LEO that was launched on Wed, 02 Jul 2025 UTC via an FALCON 9 launch vehicle from the Air Force Eastern Test Range (AFETR). Payload-class satellites include a variety of spacecraft equipped with specific instruments for various scientific and technological missions. These include communications satellites like Starlink; space stations such as the ISS; scientific satellites like the Hubble; Earth observation satellites from companies like Planet Labs, Umbra, and HawkEye 360; GPS; miniature CubeSats for education and research; and military/defense satellites.

Loading next visibility...
Identifier
64725, 2025-144B
Orbit
LEO
Last TLE update
17 hours ago
Origin
Manufacturer
SpaceX/Seattle
Mission
Operational spacecraft
Bus & Motor
STARLINK V2MO, Unknown motor
Mass
575 kg wet, ~530 kg dry
Launch date (UTC)
2025-07-02 (1 week ago)
Launch vehicle
FALCON 9
Launch site
Air Force Eastern Test Range (AFETR)
Object type
Payload
Rocket body
Debris
Shape & HBR
Unknown
Radar Cross Section
RCS unknown

Expand to show TLE details & history

TLE from 17 hours ago
0 STARLINK-34562
1 64725U 25144B   25191.66668981 -.01090005  00000-0 -45240-2 0  9992
2 64725  53.1541 231.7831 0000880  68.6302 356.9452 15.87609399  2554
Epoch: 2025-07-10T16:00Z
TLE epoch observation values (Epoch: 2025-07-10T16:00:01.999Z)
Latitude
46.91967°
Longitude
115.77014°
Altitude
313.497 km
Speed
7.726 km/s
True Right ascension
18h 58m 25s
True Declination
46° 44' 12"
Sunlit
Object was in full shadow at epoch
Visualization orbit readout
Latitude
-53.0751°
Longitude
-38.20336°
Altitude
332.863 km
Speed
7.708 km/s
Apparent Right ascension
09h 17m 13s
Apparent Declination
-46° 44' 60"
Sunlit
Object is in daylight
Visualization observer readout
Local Sidereal Time
21:45:48
Azimuth
145.156° SSE
Elevation
-81.423°
Doppler factor
1
Orbital elements
Apogee altitude
309.839 km
Perigee altitude
308.662 km
Semi-major axis
6,687.388 km
Eccentricity
0.00009
Inclination
53.1541°
RAAN
231.7831°
Arg. of periapsis
68.6302°
True anomaly
Unknown
Mean anomaly
356.9452°
Eccentric anomaly
Unknown
Mean motion
3.96879 °/min
Orbital period
90.71 mins
BSTAR
-0.004524
Loading maneuver chart data...
Loading SW <> Apogee altitude chart data...
Loading historical data...
Loading historical data...
Loading historical data...
Loading historical data...
Loading historical data...
Loading historical data...
Loading historical data...

STARLINK-34562 Visibility forecast

Observer location: undefined°, undefined°

Span
Click to sort rows by Start time (UTC) header in descending order
Start Az.
Max El. time (UTC)
Max El. Az.
Max El.
End time (UTC)
End Az.
4 mins2025-07-11 11:52:05.430Z329.637° NNW2025-07-11 11:54:05.430Z63.739° ENE32.953°2025-07-11 11:56:05.430Z110.186° ESE
|